Starlink 6237

operational
NORAD ID: 57055 Int'l Des: 2023-088 Owner: SPXS Country: US Constellation: starlink
LEOCIRCULAR

About Starlink 6237

Description loading...

Live Position

Loading 3D Globe...

Upcoming Passes

Altitude History

Altitude vs Time

uPlot chart will show altitude changes over time

Two-Line Element Set

1 57055U 23088H 25260.08768986 .00000187 00000-0 28893-4 0 9990
2 57055 43.0040 330.9400 0000972 267.3028 92.7703 15.02531884124259
Epoch: Sep 17, 2025 • Age: 19 hours

Current Status

Altitude 561.8 km
Velocity 7.59 km/s
Sub-Earth Point 38.39°N, 64.04°E
Launch Date Jun 22, 2023
Age 2.2 years
Type internet

Technical Details

Classification Payload
Mass 305.00 kg
Dry Mass 290.00 kg
Total Mass 305.00 kg
Length 0.20 m
Diameter 2.80 m
Span 9.00 m
Shape Box + pan
Manufacturer SPXS
Bus Type Starlink
Phase Status In Orbit
Owner/State SPXS/US

Large Constellations

Loading constellations...